Weather History for Torrington, WY

Change the Weather History Date:

Sunday, December 23, 2012

  Actual Average Record
Temperature  
Mean Temperature 32 °F 26 °F  
Max Temperature 51 °F 39 °F 56 °F (2005)
Min Temperature 13 °F 14 °F -22 °F (1998)
Degree Days  
Heating Degree Days 33 38  
Month to date heating degree days 718 867  
Since 1 July heating degree days 2061 2450  
Cooling Degree Days 0 0  
Month to date cooling degree days 0 0  
Year to date cooling degree days 1021 678  
Moisture  
Dew Point 11 °F    
Average Humidity 49    
Maximum Humidity 80    
Minimum Humidity 18    
Precipitation  
Precipitation 0.00 in 0.01 in 0.10 in (2009)
Month to date precipitation 0.04 0.29  
Year to date precipitation 7.04 14.13  
Sea Level Pressure  
Sea Level Pressure 29.95 in    
Wind  
Wind Speed 11 mph (WNW)    
Max Wind Speed 33 mph    
Max Gust Speed 40 mph    
Visibility 10 miles    
Events      
T = Trace of Precipitation, MM = Missing Value Source: NWS Daily Summary

Daily Weather History Graph

Daily Weather History Graph

Search for Another Location

Airport:

Trip Planner

Search our weather history database for the weather conditions in past years. The results will help you decide how hot, cold, wet, or windy it might be!

Date:

Astronomy

Dec. 23, 2012 Rise Set
Actual Time 7:22 AM MST 4:29 PM MST
Civil Twilight 6:50 AM MST 5:01 PM MST
Nautical Twilight 6:15 AM MST 5:36 PM MST
Astronomical Twilight 5:41 AM MST 6:10 PM MST
Moon 1:23 PM MST 3:05 AM MST
Length of Visible Light 10h 10m
Length of Day
9h 06m
Waxing Gibbous, 82% of the Moon is Illuminated
Dec 23
Waxing Gibbous
Dec 28
Full
Jan 4
Last Quarter
Jan 11
New
Jan 18
First Quarter

Hourly Weather History & Observations

Time (MST) Temp. Windchill Dew Point Humidity Pressure Visibility Wind Dir Wind Speed Gust Speed Precip Events Conditions
12:53 AM 18.0 °F 11.1 °F 10.9 °F 74% 29.88 in 10.0 mi ESE 4.6 mph - N/A   Clear
1:53 AM 19.9 °F 13.4 °F 12.0 °F 71% 29.88 in 10.0 mi WNW 4.6 mph - N/A   Clear
2:53 AM 16.0 °F - 9.0 °F 74% 29.90 in 10.0 mi Calm Calm - N/A   Clear
3:53 AM 16.0 °F 10.4 °F 9.0 °F 74% 29.89 in 10.0 mi WSW 3.5 mph - N/A   Clear
4:53 AM 25.0 °F 18.1 °F 8.1 °F 49% 29.90 in 10.0 mi Variable 5.8 mph - N/A   Clear
5:53 AM 19.0 °F 11.1 °F 8.1 °F 62% 29.92 in 10.0 mi Variable 5.8 mph - N/A   Clear
6:53 AM 39.0 °F 29.0 °F 14.0 °F 36% 29.88 in 10.0 mi WSW 20.7 mph 31.1 mph N/A   Clear
7:53 AM 36.0 °F 28.0 °F 14.0 °F 41% 29.93 in 10.0 mi WSW 11.5 mph - N/A   Clear
8:53 AM 36.0 °F 30.3 °F 15.1 °F 43% 29.95 in 10.0 mi South 6.9 mph - N/A   Clear
9:53 AM 43.0 °F 38.8 °F 17.1 °F 35% 29.95 in 10.0 mi WSW 6.9 mph - N/A   Clear
10:53 AM 46.0 °F 38.5 °F 15.1 °F 29% 29.94 in 10.0 mi WSW 19.6 mph 31.1 mph N/A   Clear
11:53 AM 48.9 °F - 10.0 °F 21% 29.93 in 10.0 mi West 20.7 mph 31.1 mph N/A   Clear
12:53 PM 50.0 °F - 8.1 °F 18% 29.93 in 10.0 mi WNW 21.9 mph 27.6 mph N/A   Clear
1:53 PM 48.0 °F - 6.1 °F 18% 29.93 in 10.0 mi WNW 24.2 mph 34.5 mph N/A   Clear
2:53 PM 48.0 °F - 6.1 °F 18% 29.95 in 10.0 mi WNW 18.4 mph 26.5 mph N/A   Clear
3:53 PM 45.0 °F 37.6 °F 8.1 °F 22% 29.97 in 10.0 mi NNW 17.3 mph 29.9 mph N/A   Mostly Cloudy
4:53 PM 39.0 °F 33.4 °F 9.0 °F 29% 29.98 in 10.0 mi NW 8.1 mph - N/A   Scattered Clouds
5:53 PM 32.0 °F 22.5 °F 12.9 °F 45% 30.03 in 10.0 mi NNE 12.7 mph - N/A   Clear
6:53 PM 26.1 °F 17.6 °F 12.9 °F 58% 29.99 in 10.0 mi NNE 8.1 mph - N/A   Clear
7:53 PM 21.9 °F 12.5 °F 12.0 °F 66% 30.01 in 10.0 mi NE 8.1 mph - N/A   Clear
8:53 PM 21.0 °F 14.6 °F 12.9 °F 71% 30.03 in 10.0 mi SE 4.6 mph - N/A   Clear
9:53 PM 17.1 °F 5.8 °F 10.9 °F 77% 30.00 in 10.0 mi NE 9.2 mph - N/A   Clear
10:53 PM 18.0 °F 8.7 °F 12.0 °F 78% 29.99 in 10.0 mi ENE 6.9 mph - N/A   Clear
11:53 PM 19.0 °F 12.3 °F 12.9 °F 77% 29.96 in 10.0 mi South 4.6 mph - N/A   Partly Cloudy